TimeMST,TemperatureF,Dew PointF,Humidity,Sea Level PressureIn,VisibilityMPH,Wind Direction,Wind SpeedMPH,Gust SpeedMPH,PrecipitationIn,Events,Conditions,WindDirDegrees,DateUTC
12:53 AM,28.9,25.0,85,30.38,10.0,ESE,3.5,-,N/A,,Clear,110,2013-02-16 07:53:00
1:53 AM,28.0,26.1,92,30.36,10.0,Calm,Calm,-,N/A,,Clear,0,2013-02-16 08:53:00
2:53 AM,27.0,24.1,89,30.34,10.0,Calm,Calm,-,N/A,,Clear,0,2013-02-16 09:53:00
3:53 AM,25.0,23.0,92,30.34,10.0,Calm,Calm,-,N/A,,Clear,0,2013-02-16 10:53:00
4:53 AM,26.1,23.0,88,30.32,10.0,Calm,Calm,-,N/A,,Clear,0,2013-02-16 11:53:00
5:53 AM,25.0,23.0,92,30.31,10.0,Calm,Calm,-,N/A,,Clear,0,2013-02-16 12:53:00
6:32 AM,24.8,23.0,93,30.21,9.0,Calm,Calm,-,N/A,,Partly Cloudy,0,2013-02-16 13:32:00
6:53 AM,24.1,23.0,96,30.30,9.0,Calm,Calm,-,N/A,,Mostly Cloudy,0,2013-02-16 13:53:00
6:55 AM,23.0,21.2,93,30.21,9.0,Calm,Calm,-,N/A,,Partly Cloudy,0,2013-02-16 13:55:00
7:53 AM,21.9,21.0,96,30.30,9.0,Calm,Calm,-,N/A,,Partly Cloudy,0,2013-02-16 14:53:00
8:53 AM,27.0,25.0,92,30.29,10.0,Calm,Calm,-,N/A,,Clear,0,2013-02-16 15:53:00
9:08 AM,26.6,24.8,93,30.19,2.5,Calm,Calm,-,N/A,,Partly Cloudy,0,2013-02-16 16:08:00
9:10 AM,26.6,24.8,93,30.19,1.0,Calm,Calm,-,N/A,,Mist,0,2013-02-16 16:10:00
9:17 AM,26.6,24.8,93,30.19,9.0,Calm,Calm,-,N/A,,Partly Cloudy,0,2013-02-16 16:17:00
9:53 AM,28.9,27.0,92,30.27,10.0,Calm,Calm,-,N/A,,Clear,0,2013-02-16 16:53:00
10:53 AM,30.9,28.0,89,30.25,10.0,Calm,Calm,-,N/A,,Overcast,0,2013-02-16 17:53:00
11:53 AM,37.0,30.0,76,30.19,10.0,Calm,Calm,-,N/A,,Scattered Clouds,0,2013-02-16 18:53:00
12:53 PM,35.6,30.2,81,30.07,10.0,Calm,Calm,-,N/A,,Overcast,0,2013-02-16 19:53:00
1:53 PM,37.9,30.9,76,30.11,10.0,WNW,4.6,-,N/A,,Overcast,300,2013-02-16 20:53:00
2:53 PM,39.0,30.9,73,30.07,10.0,West,5.8,-,N/A,,Overcast,260,2013-02-16 21:53:00
3:53 PM,37.9,30.0,73,30.04,10.0,Calm,Calm,-,N/A,,Overcast,0,2013-02-16 22:53:00
4:53 PM,39.0,32.0,76,30.00,10.0,Calm,Calm,-,N/A,,Overcast,0,2013-02-16 23:53:00
5:53 PM,39.0,30.9,73,29.96,10.0,Calm,Calm,-,N/A,,Overcast,0,2013-02-17 00:53:00
6:53 PM,36.0,30.0,79,29.93,10.0,SE,3.5,-,N/A,,Mostly Cloudy,130,2013-02-17 01:53:00
7:53 PM,36.0,30.9,82,29.95,10.0,NW,16.1,20.7,0.00,,Overcast,310,2013-02-17 02:53:00
8:53 PM,39.0,34.0,82,29.92,10.0,North,4.6,-,0.02,,Overcast,10,2013-02-17 03:53:00
9:46 PM,37.4,33.8,87,29.88,10.0,NW,8.1,20.7,N/A,,Overcast,320,2013-02-17 04:46:00
9:53 PM,37.0,33.1,86,29.95,10.0,NNW,15.0,20.7,N/A,,Overcast,340,2013-02-17 04:53:00
10:53 PM,36.0,32.0,86,29.94,10.0,NNW,8.1,-,N/A,,Overcast,330,2013-02-17 05:53:00
11:38 PM,35.6,32.0,87,29.86,10.0,WNW,5.8,-,N/A,,Overcast,290,2013-02-17 06:38:00
11:49 PM,35.6,32.0,87,29.87,10.0,WNW,8.1,-,0.00,,Overcast,290,2013-02-17 06:49:00
11:53 PM,35.1,32.0,89,29.94,9.0,NW,11.5,-,0.00,Snow,Light Snow,320,2013-02-17 06:53:00